• En España
  • Lista de países
  • Para 7 días
  • Temperatura del agua
  • Mapa Satelital
  • El tiempo en el mapa
  • Informadores
  • user-avatar
    Iniciar sesión

    Tiempo cada hora Portimao

    Hoy, 20 Septiembre, Jueves

    Tiempo Temperatura Precipitaciones Viento Presión Humedad
    00:00 +24°C° 0 mm 3 mps 763 mmHg 46%
    01:00 +22°C° 0 mm 3 mps 763 mmHg 47%
    02:00 +22°C° 0 mm 3 mps 763 mmHg 48%
    03:00 +22°C° 0 mm 3 mps 763 mmHg 49%
    04:00 +23°C° 0 mm 2 mps 763 mmHg 50%
    05:00 +21°C° 0 mm 2 mps 763 mmHg 51%
    06:00 +25°C° 0 mm 2 mps 763 mmHg 45%
    07:00 +27°C° 0 mm 2 mps 763 mmHg 38%
    08:00 +30°C° 0 mm 1 mps 764 mmHg 32%
    09:00 +32°C° 0 mm 2 mps 763 mmHg 29%
    10:00 +35°C° 0 mm 2 mps 763 mmHg 27%
    11:00 +36°C° 0 mm 3 mps 763 mmHg 29%
    12:00 +36°C° 0 mm 3 mps 763 mmHg 28%
    13:00 +36°C° 0 mm 3 mps 763 mmHg 28%
    14:00 +36°C° 0 mm 4 mps 763 mmHg 28%
    15:00 +34°C° 0 mm 4 mps 762 mmHg 32%
    16:00 +33°C° 0 mm 4 mps 762 mmHg 36%
    17:00 +30°C° 0 mm 5 mps 762 mmHg 40%
    18:00 +28°C° 0 mm 5 mps 762 mmHg 48%
    19:00 +26°C° 0 mm 5 mps 763 mmHg 55%
    20:00 +23°C° 0 mm 5 mps 763 mmHg 63%
    21:00 +23°C° 0 mm 5 mps 763 mmHg 63%
    22:00 +22°C° 0 mm 5 mps 763 mmHg 63%
    23:00 +22°C° 0 mm 5 mps 763 mmHg 63%

    Mañana, 21 Septiembre, Viernes

    Tiempo Temperatura Precipitaciones Viento Presión Humedad
    00:00 +21°C° 0 mm 5 mps 763 mmHg 65%
    01:00 +21°C° 0 mm 5 mps 763 mmHg 67%
    02:00 +20°C° 0 mm 5 mps 762 mmHg 69%
    03:00 +20°C° 0 mm 5 mps 762 mmHg 74%
    04:00 +19°C° 0 mm 5 mps 763 mmHg 78%
    05:00 +19°C° 0 mm 5 mps 763 mmHg 82%
    06:00 +21°C° 0 mm 5 mps 763 mmHg 74%
    07:00 +23°C° 0 mm 4 mps 763 mmHg 66%
    08:00 +26°C° 0 mm 4 mps 763 mmHg 58%
    09:00 +29°C° 0 mm 4 mps 763 mmHg 47%
    10:00 +31°C° 0 mm 3 mps 763 mmHg 37%
    11:00 +35°C° 0 mm 3 mps 763 mmHg 26%
    12:00 +36°C° 0 mm 4 mps 763 mmHg 25%
    13:00 +37°C° 0 mm 4 mps 763 mmHg 24%
    14:00 +37°C° 0 mm 5 mps 762 mmHg 24%
    15:00 +35°C° 0 mm 5 mps 762 mmHg 28%
    16:00 +34°C° 0 mm 5 mps 762 mmHg 32%
    17:00 +32°C° 0 mm 5 mps 762 mmHg 36%
    18:00 +29°C° 0 mm 5 mps 762 mmHg 42%
    19:00 +27°C° 0 mm 5 mps 763 mmHg 48%
    20:00 +25°C° 0 mm 5 mps 763 mmHg 54%
    21:00 +25°C° 0 mm 5 mps 763 mmHg 56%
    22:00 +23°C° 0 mm 5 mps 763 mmHg 58%
    23:00 +23°C° 0 mm 5 mps 763 mmHg 60%

    Pasado mañana, 22 Septiembre, Sábado

    Tiempo Temperatura Precipitaciones Viento Presión Humedad
    00:00 +22°C° 0 mm 4 mps 763 mmHg 62%
    01:00 +22°C° 0 mm 4 mps 763 mmHg 63%
    02:00 +21°C° 0 mm 4 mps 763 mmHg 65%
    03:00 +21°C° 0 mm 4 mps 763 mmHg 66%
    04:00 +21°C° 0 mm 4 mps 763 mmHg 67%
    05:00 +21°C° 0 mm 3 mps 763 mmHg 68%
    06:00 +25°C° 0 mm 3 mps 763 mmHg 57%
    07:00 +28°C° 0 mm 3 mps 764 mmHg 47%
    08:00 +30°C° 0 mm 3 mps 764 mmHg 37%
    09:00 +34°C° 0 mm 3 mps 764 mmHg 31%
    10:00 +37°C° 0 mm 3 mps 764 mmHg 24%
    11:00 +39°C° 0 mm 3 mps 764 mmHg 18%
    12:00 +39°C° 0 mm 3 mps 764 mmHg 17%
    13:00 +39°C° 0 mm 3 mps 763 mmHg 17%
    14:00 +40°C° 0 mm 3 mps 763 mmHg 16%
    15:00 +38°C° 0 mm 3 mps 763 mmHg 21%
    16:00 +36°C° 0 mm 3 mps 763 mmHg 25%
    17:00 +34°C° 0 mm 3 mps 763 mmHg 30%
    18:00 +31°C° 0 mm 3 mps 764 mmHg 37%
    19:00 +29°C° 0 mm 3 mps 764 mmHg 43%
    20:00 +26°C° 0 mm 3 mps 765 mmHg 50%
    21:00 +26°C° 0 mm 3 mps 764 mmHg 50%
    22:00 +26°C° 0 mm 3 mps 764 mmHg 49%
    23:00 +26°C° 0 mm 3 mps 764 mmHg 49%

    23 Septiembre, Domingo

    Tiempo Temperatura Precipitaciones Viento Presión Humedad
    00:00 +26°C° 0 mm 3 mps 764 mmHg 49%
    01:00 +26°C° 0 mm 3 mps 764 mmHg 49%
    02:00 +25°C° 0 mm 3 mps 764 mmHg 49%
    03:00 +25°C° 0 mm 3 mps 764 mmHg 50%
    04:00 +25°C° 0 mm 3 mps 764 mmHg 51%
    05:00 +24°C° 0 mm 2 mps 763 mmHg 52%
    06:00 +27°C° 0 mm 2 mps 764 mmHg 45%
    07:00 +29°C° 0 mm 2 mps 764 mmHg 39%
    08:00 +32°C° 0 mm 2 mps 764 mmHg 32%
    09:00 +35°C° 0 mm 3 mps 764 mmHg 28%
    10:00 +38°C° 0 mm 3 mps 764 mmHg 23%
    11:00 +40°C° 0 mm 3 mps 764 mmHg 19%
    12:00 +40°C° 0 mm 3 mps 764 mmHg 19%
    13:00 +40°C° 0 mm 3 mps 763 mmHg 19%
    14:00 +40°C° 0 mm 3 mps 763 mmHg 19%
    15:00 +38°C° 0 mm 3 mps 763 mmHg 23%
    16:00 +36°C° 0 mm 3 mps 763 mmHg 27%
    17:00 +34°C° 0 mm 3 mps 763 mmHg 31%
    18:00 +31°C° 0 mm 3 mps 763 mmHg 37%
    19:00 +29°C° 0 mm 3 mps 764 mmHg 44%
    20:00 +27°C° 0 mm 3 mps 764 mmHg 50%
    21:00 +27°C° 0 mm 3 mps 764 mmHg 51%
    22:00 +26°C° 0 mm 2 mps 764 mmHg 52%
    23:00 +26°C° 0 mm 2 mps 764 mmHg 54%

    24 Septiembre, Lunes

    Tiempo Temperatura Precipitaciones Viento Presión Humedad
    00:00 +25°C° 0 mm 2 mps 763 mmHg 54%
    01:00 +25°C° 0 mm 2 mps 763 mmHg 55%
    02:00 +25°C° 0 mm 2 mps 763 mmHg 55%
    03:00 +24°C° 0 mm 2 mps 763 mmHg 54%
    04:00 +24°C° 0 mm 2 mps 763 mmHg 53%
    05:00 +24°C° 0 mm 2 mps 763 mmHg 53%
    06:00 +27°C° 0 mm 2 mps 763 mmHg 45%
    07:00 +30°C° 0 mm 2 mps 763 mmHg 37%
    08:00 +34°C° 0 mm 2 mps 763 mmHg 29%
    09:00 +36°C° 0 mm 2 mps 763 mmHg 24%
    10:00 +39°C° 0 mm 3 mps 763 mmHg 19%
    11:00 +43°C° 0 mm 3 mps 763 mmHg 14%
    12:00 +42°C° 0 mm 3 mps 762 mmHg 14%
    13:00 +42°C° 0 mm 3 mps 762 mmHg 14%
    14:00 +40°C° 0 mm 3 mps 761 mmHg 14%
    15:00 +38°C° 0 mm 3 mps 761 mmHg 19%
    16:00 +36°C° 0 mm 2 mps 761 mmHg 23%
    17:00 +34°C° 0 mm 2 mps 761 mmHg 28%
    18:00 +31°C° 0 mm 2 mps 762 mmHg 32%
    19:00 +29°C° 0 mm 2 mps 762 mmHg 37%
    20:00 +27°C° 0 mm 2 mps 762 mmHg 41%
    21:00 +27°C° 0 mm 2 mps 762 mmHg 40%
    22:00 +27°C° 0 mm 2 mps 762 mmHg 39%
    23:00 +27°C° 0 mm 2 mps 762 mmHg 38%

    25 Septiembre, Martes

    Tiempo Temperatura Precipitaciones Viento Presión Humedad
    00:00 +27°C° 0 mm 2 mps 762 mmHg 39%
    01:00 +27°C° 0 mm 3 mps 761 mmHg 41%
    02:00 +27°C° 0 mm 3 mps 761 mmHg 42%
    03:00 +26°C° 0 mm 3 mps 761 mmHg 43%
    04:00 +26°C° 0 mm 3 mps 761 mmHg 44%
    05:00 +26°C° 0 mm 3 mps 761 mmHg 45%
    06:00 +28°C° 0 mm 3 mps 761 mmHg 39%
    07:00 +32°C° 0 mm 4 mps 762 mmHg 33%
    08:00 +34°C° 0 mm 4 mps 762 mmHg 27%
    09:00 +36°C° 0 mm 5 mps 762 mmHg 25%
    10:00 +37°C° 0 mm 5 mps 762 mmHg 22%
    11:00 +40°C° 0 mm 6 mps 762 mmHg 20%
    12:00 +40°C° 0 mm 6 mps 761 mmHg 20%
    13:00 +40°C° 0 mm 6 mps 761 mmHg 21%
    14:00 +40°C° 0 mm 6 mps 761 mmHg 22%
    15:00 +37°C° 0 mm 5 mps 761 mmHg 27%
    16:00 +35°C° 0 mm 5 mps 761 mmHg 32%
    17:00 +33°C° 0 mm 4 mps 761 mmHg 37%
    18:00 +30°C° 0 mm 4 mps 761 mmHg 44%
    19:00 +29°C° 0 mm 4 mps 762 mmHg 51%
    20:00 +27°C° 0 mm 3 mps 762 mmHg 58%
    21:00 +26°C° 0 mm 3 mps 762 mmHg 59%
    22:00 +26°C° 0 mm 4 mps 762 mmHg 61%
    23:00 +26°C° 0 mm 4 mps 762 mmHg 63%
    Mostrar más